User: anonymous   Login
Location: Sungai Apap
(2.6167°N, 113.3833°E)
Time: 20:39:43
(UTC+00:00)
Language:

Cosmos 1455 Rocket - Orbit

View from above orbital plane
View from above orbital plane
View from above satellite
View from above satellite

Ground track
Ground track

The orbit data is extracted from the following two-line orbital elements,

1 14033U 83037B   24205.34010890  .00001089  00000-0  12458-3 0  9991
2 14033  82.5052  71.5827 0016833 194.4078 165.6661 14.85039084843096
Epoch (UTC): 23 July 2024 08:09:45
Eccentricity: 0.0016833
inclination: 82.5052°
perigee height: 601 km
apogee height: 625 km
right ascension of ascending node: 71.5827°
argument of perigee: 194.4078°
revolutions per day: 14.85039084
mean anomaly at epoch: 165.6661°
orbit number at epoch: 84309

The dashed part of the orbit path shows where the satellite is in the earth's shadow,  

DLR